World > North America > United States > Texas > Roby  

Roby, TX Hourly Weather Updates

Feedback E-mail the Weather

Quick Clicks

Roby, TX Weather Maps

°F °C°F °C
Roby Weather Map
UTC Time: 7/20/2024, 06:47
Your Time:

Roby, TX Regional Weather

Expires:202407200700;;971187
ASUS44 KSJT 200610
RWRSJT
WEST CENTRAL TEXAS REGIONAL WEATHER ROUNDUP
NATIONAL WEATHER SERVICE SAN ANGELO TX
100 AM CDT SAT JUL 20 2024

NOTE: "FAIR" INDICATES FEW OR NO CLOUDS BELOW 12,000 FEET WITH NO
SIGNIFICANT WEATHER AND/OR OBSTRUCTIONS TO VISIBILITY.


TXZ049-054-064>066-071>073-076>078-098-099-113-114-127-128-139-140-
154-155-168>170-200700-
...LOCATIONS ACROSS WEST CENTRAL TEXAS...
  
CITY           SKY/WX    TMP DP  RH WIND       PRES   REMARKS
SAN ANGELO     CLEAR     76  62  62 SE5       30.06S TC  24           
ABILENE        CLEAR     77  62  59 SE7       30.07F TC  25           
DYESS AFB      CLEAR     76  60  56 S5        30.05F TC  25           
JUNCTION       CLEAR     77  65  66 E3        30.08S TC  25           
SWEETWATER       N/A     80  59  49 S7        30.12S TC  27           
BROWNWOOD      NOT AVBL                                               
COLEMAN        CLEAR     75  61  60 MISG      30.07F TC  24           
SAN SABA       CLEAR     76  65  69 E6        30.08S TC  24           
SONORA         CLEAR    N/A N/A N/A VRB7      30.12F                  
OZONA          CLEAR     79  59  50 SE7       30.11S TC  26           
BRADY          CLEAR     75  63  64 E6        30.07F TC  24           
$$


SKY/WX - Weather  TMP - Temperature  DP - Dew Point  RH - Humidity
WIND - Wind Direction/Speed PRES - Barometric Pressure VSB - Visibility
WCI - Wind Chill Index E13G22 Wind - East Wind 13 mph/Gusts of 22 mph

Trending Headlines

Trending Entertainment Headlines

Roby Radar Loop

Use the map search tool if you want to place a location marker on the radar map...

Roby Quick Facts

National Two Day Weather Forecast


E-mail the Roby Weather Forecast

Voice your opinion or tell us about page issues...